This demonstration page uses our WeatherBlox Daily Observations layout. Learn more.

Left ArrowRight Arrow

41.86663, -103.66717

Hourly Observations for May 8, 2021

Temp ( °F °C ) Dew Point ( °F °C ) Humidity (%) Winds ( mph kmh ) Pressure ( in mb ) Visibility ( mi km ) Precip ( " mm )
12:53 am 00:53 Clear 56 13.3 46 7.8 70 70 ESE 15 24 29.61 1003 10 16 N/A
1:53 am 01:53 Clear 54 12.2 46 7.8 75 75 ESE 17 28 29.58 1002 10 16 N/A
2:53 am 02:53 Clear 52 11.1 45 7.2 77 77 E 13 20 29.55 1001 10 16 N/A
3:53 am 03:53 Clear 51 10.6 44 6.7 77 77 E 17 28 29.54 1000 10 16 N/A
4:53 am 04:53 Mostly Clear 50 10 43 6.1 77 77 E 8 13 29.58 1002 10 16 N/A
5:53 am 05:53 Sunny 48 8.9 43 6.1 83 83 ESE 8 13 29.57 1001 10 16 N/A
6:53 am 06:53 Sunny 49 9.4 43 6.1 80 80 ESE 7 11 29.59 1002 10 16 N/A
7:53 am 07:53 Sunny 52 11.1 44 6.7 75 75 NE 5 7 29.60 1003 10 16 N/A
8:53 am 08:53 Sunny 57 13.9 46 7.8 67 67 WNW 7 11 29.62 1003 10 16 N/A
9:53 am 09:53 Sunny 63 17.2 44 6.7 50 50 NW 21 33 29.62 1003 10 16 N/A
10:53 am 10:53 Partly Cloudy 65 18.3 43 6.1 45 45 NW 22 35 29.64 1004 10 16 N/A
11:53 am 11:53 Sunny 69 20.6 42 5.6 38 38 NNW 22 35 29.62 1003 10 16 N/A
12:53 pm 12:53 Partly Cloudy 67 19.4 42 5.6 41 41 NNW 24 39 29.64 1004 10 16 N/A
1:53 pm 13:53 Sunny 68 20 42 5.6 39 39 N 21 33 29.66 1004 10 16 N/A
2:53 pm 14:53 Sunny 67 19.4 41 5 39 39 N 24 39 29.68 1005 10 16 N/A
3:53 pm 15:53 Mostly Cloudy 66 18.9 41 5 40 40 N 23 37 29.67 1005 10 16 N/A
4:53 pm 16:53 Mostly Cloudy 62 16.7 39 3.9 43 43 N 26 43 29.71 1006 10 16 0.00 0.00
5:53 pm 17:53 Mostly Sunny 60 15.6 40 4.4 47 47 N 23 37 29.76 1008 10 16 0.00 0.00
6:53 pm 18:53 Mostly Sunny 54 12.2 38 3.3 55 55 NNE 20 31 29.83 1010 10 16 N/A
7:53 pm 19:53 Sunny 50 10 36 2.2 59 59 NNE 17 28 29.90 1012 10 16 N/A
8:53 pm 20:53 Partly Cloudy 47 8.3 35 1.7 63 63 NE 15 24 29.93 1014 10 16 N/A
9:14 pm 21:14 Mostly Cloudy 46 7.8 35 1.7 66 66 NNE 15 24 29.99 1016 10 16 N/A
9:53 pm 21:53 Cloudy 46 7.8 35 1.7 66 66 NNE 12 19 29.96 1014 10 16 N/A
10:39 pm 22:39 Cloudy 45 7 34 1 66 66 NNE 12 19 30.03 1017 10 16 N/A
10:53 pm 22:53 Mostly Cloudy 43 6.1 34 1.1 71 71 NNE 8 13 29.99 1016 10 16 N/A
11:53 pm 23:53 Cloudy 43 6.1 34 1.1 71 71 NNE 5 7 30.01 1016 10 16 N/A

Powered by AerisWeather